Location: Baumgarten
(49.0970°N, 12.7493°E)
Time: 08:44:49
(UTC+00:00)

BREEZE M DEB (TANK) - Pass Details

Date: 05 July 2020
Orbit: 285 x 14546 km, 49.5° (Epoch: 05 August)

Event Time Altitude Azimuth Distance (km) Brightness Sun altitude
Rises 21:20:28 0° 282° (WNW) 2,374 6.7 -13.9°
Reaches altitude 10° 21:23:09 10° 254° (WSW) 1,174 4.6 -14.1°
Enters shadow 21:24:10 14° 226° (SW) 930 3.8 -14.2°
